Weather in Glebovo

Russia / Ryazan Oblast     54°08′11″N   41°10′13″E
temp.,
°C
wind,
m/s
gust,
m/s
humid.,
%
clouds,
%
prec.,
mm/h
press.,
hPa
HPBL,
m
2 march, tue
tue200:00−2wsw71393100 0.0 1016676
03:000wsw71492100 0.1 1014651
06:00+1w71493100 0.0 1010734
09:00+1w71398100 0.1 1009635
12:00+1wnw61199100 0.2 1007711
15:00+1wnw51192100 0.5 1007776
18:000wnw4119195 0.3 1007544
21:00−2nw4119091 0.4 1008428
3 march, wed
wed300:00−3nw5129491 0.1 1008481
03:00−4nw5119695 0.3 1010455
06:00−6nw5139163 0.1 1011544
09:00−6nw6129078 0.1 1013741
12:00−4nw61084100 0.1 1013855
15:00−2nw598171 0.1 1014989
18:00−3w5119398 0.1 1013534
21:00−4w5129498 0.2 1014421
4 march, thu
thu400:00−4w5129586 0.0 1013444
03:00−4w5129291 0.1 1012439
06:00−2wsw61290100 0.0 1009600
09:00−1sw81789100 0.6 1007649
12:00+1wsw91786100 0.0 1003891
15:00+1wsw91682100 0.0 1002995
18:00+1wsw8158499 0.0 1000960
21:00+1wsw7139799 0.1 1000797
5 march, fri
fri500:000w5998100 0.3 1000507
03:00−3nw2588100 0.9 1002152
06:00−5nnw2591100 0.0 1004168
09:00−5nnw2390100 0.0 1006173
12:00−3n1181100 0.0 1007463
15:00−2ene1180100 0.0 1008568
18:00−4ese2494100 0.0 1007119
21:00−5ne3596100 0.4 1007188
6 march, sat
sat600:00−5nne4795100 1.1 1006338
03:00−6n3795100 1.4 1006280
06:00−9nw3596100 0.0 1008125
09:00−8nw359491 0.1 1009260
12:00−6nw468797 0.1 1010729
15:00−5wnw468398 0.3 1010815
18:00−7w498995 0.3 1011289
21:00−11w369068 0.3 1012127